"Collar_ID","LMT_Date","LMT_Time","Latitude","Longitude"
82454,"3/5/2019","5:00:05",33.1850692,-83.5632717
82454,"3/5/2019","6:00:05",33.1825836,-83.5616025
82454,"3/5/2019","7:01:09",33.1818442,-83.561095
82454,"3/5/2019","14:01:03",33.1765886,-83.5345114
82454,"3/5/2019","15:00:13",33.1769803,-83.5347028
82454,"3/5/2019","16:01:08",33.1767764,-83.5345322
82454,"3/5/2019","17:00:12",33.1767831,-83.5347983
82454,"3/5/2019","18:00:11",33.1767417,-83.5345058
82454,"3/5/2019","19:01:04",33.1755367,-83.5371992
82454,"3/5/2019","20:00:19",33.1755214,-83.5372542
82454,"3/5/2019","21:00:07",33.1755314,-83.5371967
82454,"3/5/2019","22:01:00",33.1753981,-83.5373539
82454,"3/5/2019","23:00:24",33.1754578,-83.5372775
82454,"3/6/2019","0:00:10",33.1756744,-83.5378106
82454,"3/6/2019","4:00:36",33.1828442,-83.5560744
82454,"3/6/2019","5:00:07",33.1828114,-83.5560764
82454,"3/6/2019","7:00:52",33.1769194,-83.5388272
82454,"3/6/2019","8:00:51",33.1766436,-83.5386094
82454,"3/6/2019","9:00:18",33.1766817,-83.53854
82454,"3/6/2019","10:00:34",33.1766917,-83.5384892
82454,"3/6/2019","11:00:18",33.1766314,-83.5389431
82454,"3/6/2019","12:01:05",33.1785267,-83.5395175
82454,"3/6/2019","13:01:09",33.1766478,-83.5386356
82454,"3/6/2019","15:00:35",33.1765833,-83.53488
82454,"3/6/2019","16:00:38",33.176645,-83.5347108
82454,"3/6/2019","17:00:33",33.1765419,-83.5348886
82454,"3/6/2019","18:00:16",33.1765406,-83.53485
82454,"3/6/2019","19:00:28",33.1772339,-83.5355536
82454,"3/6/2019","20:01:03",33.176635,-83.5345192
82454,"3/6/2019","21:00:04",33.1767836,-83.5347744
82454,"3/6/2019","22:00:19",33.1777519,-83.5375267
82454,"3/6/2019","23:00:33",33.1766081,-83.5345725
82454,"3/7/2019","0:00:31",33.1826339,-83.5344481
82454,"3/7/2019","1:01:07",33.18616,-83.5202328
82454,"3/7/2019","3:01:09",33.1961731,-83.5160478
82454,"3/7/2019","4:01:09",33.1915603,-83.5195192
82454,"3/7/2019","6:00:50",33.1702656,-83.5039792
82454,"3/7/2019","9:00:33",33.16283,-83.5116317
82454,"3/7/2019","10:00:18",33.1627903,-83.5115925
82454,"3/7/2019","11:00:36",33.1627314,-83.5115933
82454,"3/7/2019","12:00:16",33.162875,-83.511465
82454,"3/7/2019","13:00:36",33.1627914,-83.5116589
82454,"3/7/2019","15:01:06",33.1634125,-83.5127828
82454,"3/7/2019","16:00:10",33.1632911,-83.5126436
82454,"3/7/2019","17:00:11",33.1633886,-83.5128064
82454,"3/7/2019","19:01:10",33.1636289,-83.5113439
82454,"3/7/2019","20:00:36",33.1629972,-83.5129697
82454,"3/7/2019","21:00:10",33.1635761,-83.51257
82454,"3/7/2019","22:01:00",33.1647575,-83.5126589
82454,"3/7/2019","23:00:58",33.164915,-83.5124403
82454,"3/8/2019","0:00:15",33.1650117,-83.5126303
82454,"3/8/2019","1:00:36",33.1675928,-83.5215436
82454,"3/8/2019","3:00:54",33.1754419,-83.5334197
82454,"3/8/2019","4:00:10",33.1758036,-83.5334294
82454,"3/8/2019","5:00:10",33.1781375,-83.5430639
82454,"3/8/2019","6:01:04",33.1731564,-83.5458789
82454,"3/8/2019","7:00:29",33.1713206,-83.5433919
82454,"3/8/2019","8:00:33",33.1708086,-83.5435694
82454,"3/8/2019","9:01:04",33.1711958,-83.5434347
82454,"3/8/2019","10:00:38",33.1743919,-83.5365069
82454,"3/8/2019","11:00:35",33.1750039,-83.5366636
82454,"3/8/2019","12:01:07",33.1772072,-83.5394203
82454,"3/8/2019","13:00:36",33.1765781,-83.5386833
82454,"3/8/2019","14:00:09",33.1771306,-83.5382647
82454,"3/8/2019","15:00:23",33.1770828,-83.5386344
82454,"3/8/2019","16:01:10",33.1769892,-83.5383869
82454,"3/8/2019","17:00:33",33.1770425,-83.5384981
82454,"3/8/2019","18:00:24",33.1768083,-83.5384286
82454,"3/8/2019","19:00:34",33.1763325,-83.5370731
82454,"3/8/2019","20:00:54",33.1765828,-83.5371322
82454,"3/8/2019","21:00:05",33.17654,-83.5372203
82454,"3/8/2019","23:01:10",33.1763917,-83.5371869
82454,"3/9/2019","0:01:09",33.1767369,-83.5375994
82454,"3/9/2019","1:01:09",33.1748922,-83.5354233
82454,"3/9/2019","2:00:05",33.1750867,-83.5354578
82454,"3/9/2019","4:00:33",33.1750994,-83.5352275
82454,"3/9/2019","5:00:29",33.1769658,-83.5373178
82454,"3/9/2019","6:00:36",33.1774164,-83.5384133
82454,"3/9/2019","7:01:00",33.1774117,-83.5382761
82454,"3/9/2019","8:01:06",33.1769892,-83.53951
82454,"3/9/2019","9:00:11",33.1835533,-83.5283097
82454,"3/9/2019","10:01:09",33.1840181,-83.5280736
82454,"3/9/2019","11:01:10",33.1832044,-83.5283789
82454,"3/9/2019","12:01:10",33.1843083,-83.5294444
82454,"3/9/2019","15:01:07",33.1844081,-83.5295694
82454,"3/9/2019","16:00:10",33.1845614,-83.52948
82454,"3/9/2019","17:01:07",33.1844758,-83.5295553
82454,"3/9/2019","18:00:11",33.1843678,-83.5294781
82454,"3/9/2019","19:01:09",33.1843203,-83.5294806
82454,"3/9/2019","21:01:06",33.1843731,-83.5294283
82454,"3/9/2019","22:00:37",33.1842111,-83.529555
82454,"3/9/2019","23:00:08",33.1850797,-83.5294308
82454,"3/10/2019","7:01:10",33.1773069,-83.5432442
82454,"3/10/2019","11:01:09",33.1774331,-83.5384592
82454,"3/10/2019","13:01:00",33.1775481,-83.5388556
82454,"3/10/2019","14:00:36",33.1775128,-83.5385967
82454,"3/10/2019","15:00:10",33.1765392,-83.5367794
82454,"3/10/2019","16:01:09",33.1760361,-83.5369931
82454,"3/10/2019","17:01:06",33.1762208,-83.53617
82454,"3/10/2019","18:01:03",33.1762725,-83.5372256
82454,"3/10/2019","19:00:26",33.1764242,-83.5370006
82454,"3/10/2019","20:00:34",33.1763078,-83.536885
82454,"3/10/2019","21:00:55",33.1763897,-83.5369883
82454,"3/10/2019","22:00:13",33.1765622,-83.5370431
82454,"3/10/2019","23:00:25",33.1763558,-83.5371914
82454,"3/11/2019","0:00:33",33.1763033,-83.5368928
82454,"3/11/2019","1:00:12",33.1765844,-83.5365747
82454,"3/11/2019","2:01:10",33.1806558,-83.5406456
82454,"3/11/2019","5:01:03",33.1742325,-83.53504
82454,"3/11/2019","6:00:06",33.1734064,-83.5347436
82454,"3/11/2019","7:00:36",33.1734853,-83.5345614
82454,"3/11/2019","8:01:10",33.1736283,-83.5346825
82454,"3/11/2019","9:00:57",33.1733353,-83.5354353
82454,"3/11/2019","10:00:08",33.1654636,-83.5228003
82454,"3/11/2019","12:01:10",33.1666556,-83.5060047
82454,"3/11/2019","13:00:33",33.1666308,-83.5059586
82454,"3/11/2019","14:00:18",33.1666264,-83.5060258
82454,"3/11/2019","15:01:10",33.1667442,-83.5060661
82454,"3/11/2019","16:01:08",33.1668131,-83.5057789
82454,"3/11/2019","18:01:06",33.1664939,-83.5068592
82454,"3/11/2019","19:01:06",33.1665072,-83.5061756
82454,"3/11/2019","20:00:10",33.1664875,-83.5062256
82454,"3/11/2019","21:00:37",33.1662131,-83.5058844
82454,"3/11/2019","22:00:51",33.1663542,-83.5063028
82454,"3/11/2019","23:00:12",33.1664331,-83.5061414
82454,"3/12/2019","7:01:03",33.19523,-83.5339447
82454,"3/12/2019","12:01:08",33.1826444,-83.5325233
82454,"3/12/2019","13:01:05",33.1821064,-83.5329408
82454,"3/12/2019","14:00:07",33.1821214,-83.5328783
82454,"3/12/2019","15:00:05",33.1766192,-83.5353889
82454,"3/12/2019","16:00:35",33.1764728,-83.535155
82454,"3/12/2019","17:00:04",33.1765347,-83.53518
82454,"3/12/2019","18:00:08",33.176495,-83.5350161
82454,"3/12/2019","19:01:07",33.1764897,-83.5351317
82454,"3/12/2019","20:00:27",33.1772889,-83.5356931
82454,"3/12/2019","21:00:59",33.1764444,-83.5352633
82454,"3/12/2019","22:00:04",33.1768369,-83.5350828
82454,"3/12/2019","23:00:04",33.1764917,-83.5353197
82454,"3/13/2019","2:01:01",33.1833517,-83.5294067
82454,"3/13/2019","4:01:03",33.1853819,-83.5354483
82454,"3/13/2019","5:00:37",33.1842203,-83.5383808
82454,"3/13/2019","8:01:03",33.1932192,-83.5383272
82454,"3/13/2019","9:00:23",33.1903225,-83.5333628
82454,"3/13/2019","10:00:35",33.1855744,-83.5303656
82454,"3/13/2019","12:01:08",33.1863222,-83.5298675
82454,"3/13/2019","13:00:57",33.1854381,-83.5303269
82454,"3/13/2019","14:00:09",33.1823369,-83.5332239
82454,"3/13/2019","15:00:57",33.1819681,-83.5328425
82454,"3/13/2019","16:00:05",33.1820439,-83.5326728
82454,"3/13/2019","17:00:15",33.182015,-83.5327219
82454,"3/13/2019","19:01:08",33.1820597,-83.5329406
82454,"3/13/2019","20:01:08",33.1822947,-83.5330728
82454,"3/13/2019","21:00:52",33.1821425,-83.5319944
82454,"3/13/2019","22:00:33",33.1819131,-83.5328103
82454,"3/13/2019","23:00:18",33.1789078,-83.5383442
82454,"3/14/2019","0:00:05",33.1778553,-83.5359778
82454,"3/14/2019","1:00:34",33.1774281,-83.5357292
82454,"3/14/2019","2:00:12",33.1774517,-83.5357539
82454,"3/14/2019","3:00:05",33.1773758,-83.5356669
82454,"3/14/2019","4:01:03",33.1774108,-83.5357422
82454,"3/14/2019","5:00:53",33.1765411,-83.5348744
82454,"3/14/2019","6:00:04",33.1764911,-83.5348203
82454,"3/14/2019","10:01:10",33.176445,-83.4987808
82454,"3/14/2019","11:01:08",33.1761178,-83.4987172
82454,"3/14/2019","12:01:06",33.1761503,-83.4989714
82454,"3/14/2019","13:00:07",33.1791414,-83.5015614
82454,"3/14/2019","14:00:05",33.1789592,-83.5016058
82454,"3/14/2019","15:00:52",33.1790967,-83.5017036
82454,"3/14/2019","16:00:09",33.1791797,-83.5017764
82454,"3/14/2019","17:00:05",33.1790178,-83.501605
82454,"3/14/2019","18:01:08",33.179535,-83.5009625
82454,"3/14/2019","19:01:08",33.1791092,-83.5017994
82454,"3/14/2019","20:01:02",33.1792128,-83.5019928
82454,"3/14/2019","21:00:03",33.1791406,-83.5022194
82454,"3/14/2019","22:01:00",33.1789044,-83.5004578
82454,"3/14/2019","23:00:33",33.1791225,-83.5017708
82454,"3/15/2019","0:00:38",33.1790906,-83.5017842
82454,"3/15/2019","1:01:08",33.1743875,-83.5019911
82454,"3/15/2019","3:01:08",33.1756403,-83.5013986
82454,"3/15/2019","5:00:34",33.1734058,-83.5016442
82454,"3/15/2019","6:00:40",33.1737897,-83.5014081
82454,"3/15/2019","7:01:08",33.1733158,-83.5016061
82454,"3/15/2019","10:01:08",33.1669297,-83.5047239
82454,"3/15/2019","12:00:35",33.1738367,-83.5016825
82454,"3/15/2019","13:00:35",33.1738728,-83.5014531
82454,"3/15/2019","14:01:02",33.1742981,-83.5011425
82454,"3/15/2019","15:01:10",33.1754633,-83.5003469
82454,"3/15/2019","16:01:03",33.1778033,-83.5004408
82454,"3/15/2019","17:00:11",33.1778289,-83.5003347
82454,"3/15/2019","18:00:13",33.1779633,-83.5004242
82454,"3/15/2019","21:01:08",33.1779686,-83.5003989
82454,"3/15/2019","22:00:33",33.1778314,-83.5005056
82454,"3/15/2019","23:00:48",33.1779028,-83.5006564
82454,"3/16/2019","1:01:04",33.1681783,-83.4962739
82454,"3/16/2019","2:01:00",33.1681442,-83.4963172
82454,"3/16/2019","3:00:07",33.1630417,-83.5056964
82454,"3/16/2019","4:01:10",33.1618747,-83.5071769
82454,"3/16/2019","5:00:33",33.1619772,-83.5071825
82454,"3/16/2019","6:00:37",33.1622192,-83.5138075
82454,"3/16/2019","7:00:05",33.1705111,-83.5217061
82454,"3/16/2019","8:01:10",33.1731394,-83.5338939
82454,"3/16/2019","9:01:04",33.1741031,-83.5345647
82454,"3/16/2019","10:01:10",33.1738067,-83.5334347
82454,"3/16/2019","14:00:35",33.18081,-83.5326672
82454,"3/16/2019","15:00:20",33.1805831,-83.5327083
82454,"3/16/2019","16:00:10",33.1803367,-83.5331914
82454,"3/16/2019","17:00:59",33.1768647,-83.5351547
82454,"3/16/2019","18:00:33",33.1768147,-83.5352081
82454,"3/16/2019","19:00:14",33.1775628,-83.5353161
82454,"3/16/2019","20:00:33",33.1768425,-83.5352106
82454,"3/16/2019","21:00:13",33.1767956,-83.5351717
82454,"3/16/2019","22:00:08",33.1767503,-83.5346722
82454,"3/16/2019","23:01:03",33.1768225,-83.5352117
82454,"3/17/2019","0:00:25",33.1767586,-83.5351128
82454,"3/17/2019","1:00:08",33.1862772,-83.5386533
82454,"3/17/2019","2:01:10",33.1958694,-83.5329561
82454,"3/17/2019","9:01:03",33.1807514,-83.5232475
82454,"3/17/2019","10:00:06",33.1805669,-83.5235858
82454,"3/17/2019","12:01:08",33.1666758,-83.5087375
82454,"3/17/2019","13:01:03",33.1665611,-83.5087992
82454,"3/17/2019","14:00:05",33.1665214,-83.5087947
82454,"3/17/2019","15:00:07",33.1666028,-83.5087906
82454,"3/17/2019","16:00:57",33.1667536,-83.5097053
82454,"3/17/2019","17:00:17",33.1664547,-83.5098556
82454,"3/17/2019","18:00:09",33.1659853,-83.5095742
82454,"3/17/2019","19:01:08",33.1666097,-83.5093172
82454,"3/17/2019","20:00:33",33.1648628,-83.5095264
82454,"3/17/2019","21:00:11",33.1649192,-83.5093133
82454,"3/17/2019","22:00:33",33.1649078,-83.5093428
82454,"3/17/2019","23:00:33",33.1648667,-83.5091644
82454,"3/18/2019","0:00:12",33.169065,-83.5150325
82454,"3/18/2019","3:01:03",33.1627089,-83.5234475
82454,"3/18/2019","4:00:25",33.1739731,-83.5307378
82454,"3/18/2019","5:00:44",33.180195,-83.5385194
82454,"3/18/2019","11:01:08",33.1804719,-83.5019506
82454,"3/18/2019","12:00:58",33.18085,-83.5016633
82454,"3/18/2019","13:00:57",33.1801222,-83.502185
82454,"3/18/2019","14:00:11",33.1800442,-83.5019136
82454,"3/18/2019","15:00:35",33.180335,-83.5021336
82454,"3/18/2019","16:00:04",33.1803769,-83.5020803
82454,"3/18/2019","17:00:05",33.1803767,-83.5020281
82454,"3/18/2019","18:01:10",33.1799119,-83.5005567
82454,"3/18/2019","19:00:51",33.1803928,-83.5019975
82454,"3/18/2019","20:00:23",33.1803078,-83.5021456
82454,"3/18/2019","21:00:11",33.1802936,-83.5018478
82454,"3/18/2019","22:00:33",33.1804958,-83.5021383
82454,"3/18/2019","23:00:19",33.1804733,-83.5022528
82454,"3/19/2019","0:01:04",33.1770931,-83.5014906
82454,"3/19/2019","1:01:10",33.1705742,-83.5055797
82454,"3/19/2019","3:01:03",33.1784131,-83.4954464
82454,"3/19/2019","4:00:11",33.1803883,-83.4982039
82454,"3/19/2019","5:00:12",33.1769792,-83.5030322
82454,"3/19/2019","8:01:06",33.1767,-83.5033925
82454,"3/19/2019","9:00:04",33.1758681,-83.5038667
82454,"3/19/2019","11:01:08",33.1728642,-83.5014161
82454,"3/19/2019","12:00:33",33.1727975,-83.5014964
82454,"3/19/2019","13:00:16",33.1729828,-83.5016508
82454,"3/19/2019","14:00:06",33.1722719,-83.50147
82454,"3/19/2019","15:01:03",33.1725417,-83.5013686
82454,"3/19/2019","16:00:18",33.1781197,-83.5011061
82454,"3/19/2019","18:01:10",33.1780544,-83.5008853
82454,"3/19/2019","19:00:36",33.1781144,-83.5009061
82454,"3/19/2019","20:00:04",33.1778261,-83.5010022
82454,"3/19/2019","21:00:25",33.1775181,-83.5006147
82454,"3/19/2019","23:00:36",33.1753614,-83.5027986
82454,"3/20/2019","0:00:04",33.1752958,-83.5026125
82454,"3/20/2019","3:00:51",33.1598644,-83.5071547
82454,"3/20/2019","4:00:18",33.1545372,-83.5073239
82454,"3/20/2019","5:01:10",33.1703231,-83.5012922
82454,"3/20/2019","6:01:04",33.1758667,-83.5033564
82454,"3/20/2019","7:00:18",33.1760236,-83.5034494
82454,"3/20/2019","8:00:28",33.175675,-83.5031922
82454,"3/20/2019","9:00:58",33.1759453,-83.5033856
82454,"3/20/2019","10:00:13",33.1755653,-83.5037864
82454,"3/20/2019","12:01:03",33.1749192,-83.4998406
82454,"3/20/2019","13:00:05",33.1750506,-83.4990067
82454,"3/20/2019","14:01:06",33.1748811,-83.499875
82454,"3/20/2019","15:00:05",33.1750092,-83.4997953
82454,"3/20/2019","16:00:36",33.1750742,-83.4999083
82454,"3/20/2019","17:00:16",33.1751661,-83.5001689
82454,"3/20/2019","18:01:10",33.1749431,-83.4997994
82454,"3/20/2019","19:01:09",33.1751664,-83.4999022
82454,"3/20/2019","20:00:35",33.1748033,-83.5000369
82454,"3/20/2019","21:00:33",33.1750683,-83.4999089
82454,"3/20/2019","22:01:04",33.1747936,-83.49988
82454,"3/20/2019","23:00:04",33.1748544,-83.4998525
82454,"3/21/2019","0:00:04",33.1724236,-83.5014114
82454,"3/21/2019","2:00:35",33.1653478,-83.5052722
82454,"3/21/2019","3:01:08",33.1682625,-83.5068189
82454,"3/21/2019","4:01:10",33.1708381,-83.5008219
82454,"3/21/2019","6:01:10",33.1708125,-83.520625
82454,"3/21/2019","9:00:35",33.1678194,-83.5252933
82454,"3/21/2019","10:00:05",33.1678519,-83.5253531
82454,"3/21/2019","11:00:09",33.1684158,-83.5258514
82454,"3/21/2019","12:01:05",33.1683344,-83.5265556
82454,"3/21/2019","13:00:05",33.1669339,-83.5165386
82454,"3/21/2019","14:00:11",33.1657186,-83.5149406
82454,"3/21/2019","15:01:07",33.1656611,-83.5156181
82454,"3/21/2019","16:00:59",33.1658133,-83.5148522
82454,"3/21/2019","17:00:07",33.1656597,-83.515
82454,"3/21/2019","19:01:10",33.1665772,-83.5180211
82454,"3/21/2019","20:01:09",33.1657678,-83.5151681
82454,"3/21/2019","23:01:09",33.1651258,-83.5149903
82454,"3/22/2019","0:00:10",33.1645622,-83.5094267
82454,"3/22/2019","2:00:35",33.1617328,-83.5068867
82454,"3/22/2019","3:00:33",33.1618014,-83.50688
82454,"3/22/2019","4:00:21",33.1554608,-83.5033272
82454,"3/22/2019","9:01:09",33.1654922,-83.5054014
82454,"3/22/2019","10:01:05",33.1655558,-83.5047233
82454,"3/22/2019","11:00:11",33.1655939,-83.5050806
82454,"3/22/2019","13:01:09",33.1655633,-83.5049139
82454,"3/22/2019","14:00:59",33.1655303,-83.5048711
82454,"3/22/2019","15:00:25",33.1656567,-83.5048389
82454,"3/22/2019","16:00:11",33.1654069,-83.5047589
82454,"3/22/2019","17:01:05",33.1650581,-83.5049314
82454,"3/22/2019","18:00:09",33.1653428,-83.5047433
82454,"3/22/2019","19:01:10",33.1652022,-83.5048417
82454,"3/22/2019","20:01:09",33.1658233,-83.505075
82454,"3/22/2019","22:01:10",33.1645311,-83.5048039
82454,"3/22/2019","23:00:34",33.1648611,-83.5044669
82454,"3/23/2019","0:00:18",33.1653133,-83.5044111
82454,"3/23/2019","2:00:33",33.1860717,-83.5151664
82454,"3/23/2019","3:00:33",33.1861094,-83.5150764
82454,"3/23/2019","4:00:18",33.1926153,-83.5112653
82454,"3/23/2019","5:01:10",33.1937869,-83.5097481
82454,"3/23/2019","8:01:10",33.1753494,-83.5047789
82454,"3/23/2019","9:01:09",33.1650156,-83.5055772
82454,"3/23/2019","10:01:05",33.1653975,-83.5052225
82454,"3/23/2019","11:00:05",33.1654808,-83.5051533
82454,"3/23/2019","12:00:35",33.1654675,-83.5050883
82454,"3/23/2019","17:01:03",33.1642794,-83.5077511
82454,"3/23/2019","18:00:30",33.1634,-83.5077914
82454,"3/23/2019","20:01:00",33.1646808,-83.5087047
82454,"3/23/2019","21:00:07",33.1647103,-83.5088917
82454,"3/23/2019","22:00:33",33.1648667,-83.5090467
82454,"3/23/2019","23:00:29",33.164845,-83.5090264
82454,"3/24/2019","0:01:08",33.1639597,-83.5130861
82454,"3/24/2019","2:01:10",33.17569,-83.5351347
82454,"3/24/2019","3:01:10",33.1758461,-83.5351031
82454,"3/24/2019","4:01:10",33.1773831,-83.5391167
82454,"3/24/2019","5:01:09",33.1815019,-83.5384314
82454,"3/24/2019","6:01:09",33.1811386,-83.538405
82454,"3/24/2019","10:00:59",33.1898386,-83.5319619
82454,"3/24/2019","11:00:15",33.1836872,-83.5352656
82454,"3/24/2019","14:01:03",33.1775472,-83.5388203
82454,"3/24/2019","15:00:33",33.1781125,-83.5386156
82454,"3/24/2019","16:00:17",33.1779028,-83.5382169
82454,"3/24/2019","17:00:42",33.1783661,-83.5378458
82454,"3/24/2019","18:01:10",33.1802914,-83.5361939
82454,"3/24/2019","20:01:10",33.1806886,-83.5366503
82454,"3/24/2019","21:01:09",33.1799989,-83.5357394
82454,"3/24/2019","22:00:37",33.1799658,-83.5360781
82454,"3/24/2019","23:00:18",33.1797892,-83.5361217
82454,"3/25/2019","0:01:10",33.1798933,-83.5367481
82454,"3/25/2019","1:01:10",33.1797236,-83.5339878
82454,"3/25/2019","2:01:09",33.1821942,-83.5327844
82454,"3/25/2019","3:01:06",33.1797339,-83.5338503
82454,"3/25/2019","4:00:57",33.1794936,-83.5336464
82454,"3/25/2019","5:00:09",33.178065,-83.5394883
82454,"3/25/2019","6:01:09",33.175625,-83.5374661
82454,"3/25/2019","7:00:59",33.1730436,-83.5342719
82454,"3/25/2019","8:00:05",33.1728625,-83.5345069
82454,"3/25/2019","9:00:10",33.1730669,-83.5341925
82454,"3/25/2019","14:01:09",33.1653494,-83.5048019
82454,"3/25/2019","16:01:00",33.163485,-83.505065
82454,"3/25/2019","17:01:05",33.1652342,-83.5048111
82454,"3/25/2019","18:01:06",33.1652361,-83.5047394
82454,"3/25/2019","19:01:10",33.1652181,-83.5047589
82454,"3/25/2019","20:01:03",33.1650989,-83.5047906
82454,"3/25/2019","21:00:18",33.1651258,-83.5049625
82454,"3/25/2019","22:01:05",33.1666292,-83.503775
82454,"3/26/2019","0:00:33",33.1559981,-83.4987822
82454,"3/26/2019","1:01:00",33.1627056,-83.4909272
82454,"3/26/2019","4:01:05",33.1658328,-83.5033467
82454,"3/26/2019","5:00:18",33.1658233,-83.5031969
82454,"3/26/2019","6:01:09",33.1604256,-83.5098556
82454,"3/26/2019","13:00:57",33.1811208,-83.5344428
82454,"3/26/2019","14:00:16",33.181485,-83.5343394
82454,"3/26/2019","15:00:18",33.18039,-83.5338153
82454,"3/26/2019","16:01:09",33.1805042,-83.5349053
82454,"3/26/2019","18:01:10",33.1804317,-83.5342411
82454,"3/26/2019","19:01:04",33.1803067,-83.533805
82454,"3/26/2019","20:00:06",33.1800622,-83.533585
82454,"3/26/2019","21:00:33",33.1803956,-83.5339217
82454,"3/26/2019","22:01:09",33.1817864,-83.5343089
82454,"3/26/2019","23:00:35",33.1818189,-83.5343753
82454,"3/27/2019","0:00:16",33.1822119,-83.5345733
82454,"3/27/2019","1:00:35",33.1822436,-83.5345083
82454,"3/27/2019","2:01:10",33.1825456,-83.5345778
82454,"3/27/2019","3:01:09",33.1822219,-83.5344358
82454,"3/27/2019","4:00:05",33.1825017,-83.5374658
82454,"3/27/2019","5:00:52",33.1825689,-83.5376075
82454,"3/27/2019","6:01:09",33.1746553,-83.5379908
82454,"3/27/2019","11:01:03",33.1701169,-83.5026114
82454,"3/27/2019","12:00:07",33.1683214,-83.5086928
82454,"3/27/2019","13:01:10",33.1673558,-83.5090397
82454,"3/27/2019","14:01:09",33.1696239,-83.5086678
82454,"3/27/2019","15:01:04",33.1671281,-83.5086436
82454,"3/27/2019","16:00:20",33.1670756,-83.5091914
82454,"3/27/2019","17:01:10",33.1671033,-83.5091456
82454,"3/27/2019","18:01:09",33.1665564,-83.5112681
82454,"3/27/2019","19:01:10",33.1663339,-83.5092042
82454,"3/27/2019","20:00:33",33.1665475,-83.5093542
82454,"3/27/2019","21:00:10",33.166875,-83.5092344
82454,"3/27/2019","22:00:15",33.1667167,-83.5091686
82454,"3/28/2019","2:01:10",33.1830792,-83.5376453
82454,"3/28/2019","4:01:04",33.1884108,-83.5355828
82454,"3/28/2019","5:00:04",33.1882136,-83.5354883
82454,"3/28/2019","8:01:09",33.1885711,-83.5351886
82454,"3/28/2019","9:01:10",33.1759167,-83.5393436
82454,"3/28/2019","10:01:09",33.1758508,-83.5386019
82454,"3/28/2019","12:00:38",33.1786111,-83.5380925
82454,"3/28/2019","13:00:05",33.1708236,-83.5400858
82454,"3/28/2019","14:00:16",33.1743942,-83.544625
82454,"3/28/2019","16:00:35",33.1741117,-83.5450669
82454,"3/28/2019","17:00:04",33.1742017,-83.5450558
82454,"3/28/2019","18:01:03",33.1740997,-83.5451128
82454,"3/28/2019","19:00:18",33.1740211,-83.5450631
82454,"3/28/2019","20:00:33",33.1733053,-83.5455228
82454,"3/28/2019","21:00:23",33.1733811,-83.5452281
82454,"3/28/2019","22:00:25",33.1740003,-83.5449944
82454,"3/28/2019","23:00:53",33.1741928,-83.5451597
82454,"3/29/2019","0:00:04",33.1783125,-83.547085
82454,"3/29/2019","1:00:26",33.1818194,-83.5421814
82454,"3/29/2019","2:00:55",33.1824136,-83.5376575
82454,"3/29/2019","3:00:10",33.1824081,-83.5375158
82454,"3/29/2019","4:00:22",33.1818211,-83.5382
82454,"3/29/2019","5:01:08",33.1818461,-83.5373175
82454,"3/29/2019","6:01:07",33.1816081,-83.5377906
82454,"3/29/2019","11:01:03",33.1817469,-83.5584847
82454,"3/29/2019","12:00:24",33.1804081,-83.5661567
82454,"3/29/2019","14:01:10",33.1740094,-83.5354269
82454,"3/29/2019","15:01:08",33.1733681,-83.5364319
82454,"3/29/2019","18:01:06",33.1735575,-83.5363206
82454,"3/29/2019","19:00:05",33.1735675,-83.5365575
82454,"3/29/2019","20:00:31",33.1735956,-83.5368369
82454,"3/29/2019","22:01:06",33.1740067,-83.5367731
82454,"3/29/2019","23:01:03",33.1735883,-83.5362481
82454,"3/30/2019","0:00:10",33.1737667,-83.5379069
82454,"3/30/2019","1:01:03",33.1748856,-83.5383586
82454,"3/30/2019","4:00:35",33.1771719,-83.5384294
82454,"3/30/2019","5:00:08",33.1769089,-83.5385436
82454,"3/30/2019","7:00:33",33.1805061,-83.5380836
82454,"3/30/2019","8:00:30",33.1806586,-83.5381642
82454,"3/30/2019","9:01:10",33.1805939,-83.5379647
82454,"3/30/2019","10:00:59",33.1805261,-83.5379958
82454,"3/30/2019","11:00:05",33.1765022,-83.5336781
82454,"3/30/2019","14:01:09",33.1675122,-83.4987783
82454,"3/30/2019","16:01:03",33.1651378,-83.5049125
82454,"3/30/2019","17:00:34",33.1656125,-83.5052069
82454,"3/30/2019","19:01:05",33.1652994,-83.50481
82454,"3/30/2019","20:00:05",33.1651386,-83.5043378
82454,"3/30/2019","21:00:20",33.1653564,-83.5051133
82454,"3/30/2019","22:00:53",33.1654031,-83.5050447
82454,"3/30/2019","23:01:06",33.1665542,-83.4991839
82454,"3/31/2019","2:00:34",33.1633669,-83.5033439
82454,"3/31/2019","3:00:10",33.1634414,-83.5034128
82454,"3/31/2019","4:00:06",33.1635047,-83.5034178